Location: Emory University Observatory
(33.7903°N, 84.3267°W)
Time: 21:02:14
(UTC-05:00)

ISS - Visible Passes

Search period start: 23 January 2018 00:00
Search period end: 02 February 2018 00:00
Orbit: 402 x 407 km, 51.6° (Epoch: 24 January)

Date Brightness Start Highest point End Pass type
(mag) Time Alt. Az. Time Alt. Az. Time Alt. Az.
23 Jan -1.6 18:27:42 10° SSE 18:29:04 12° SE 18:30:26 10° ESE visible
23 Jan -1.7 20:02:04 10° WSW 20:03:52 27° W 20:03:52 27° W visible
24 Jan -4.0 19:09:39 10° SW 19:12:54 80° SE 19:14:10 34° NE visible
25 Jan -1.5 19:54:45 10° W 19:57:03 19° NW 19:57:03 19° NW visible
26 Jan -2.5 19:01:44 10° WSW 19:04:45 35° NW 19:07:10 14° NNE visible
27 Jan -0.9 19:48:49 10° NW 19:49:20 10° NNW 19:49:51 10° NNW visible
28 Jan -1.4 18:54:34 10° WNW 18:56:44 16° NNW 18:58:54 10° N visible
